Location: Castle
(40.7167°S, 175.9500°E)
Time: 04:58:50
(UTC+00:00)

Lacrosse 5 rocket - Pass Details

Date: 04 August 2024
Orbit: 434 x 569 km, 57.0° (Epoch: 07 September)

Event Time Altitude Azimuth Distance (km) Brightness Sun altitude
Exits shadow 18:34:22 - 299° (WNW) 2,514 4.3 -8.7°
Reaches altitude 10° 18:36:01 10° 294° (WNW) 1,876 3.6 -8.4°
Maximum altitude 18:40:08 45° 220° (SW) 776 1.7 -7.7°
Drops below altitude 10° 18:44:07 10° 146° (SSE) 1,825 4.2 -7.0°
Sets 18:46:23 0° 140° (SE) 2,697 5.2 -6.5°
